Weather History for KEST - October, 2012

Change the Weather History Date:

Tuesday, October 16, 2012

  Actual Average Record
Temperature  
Mean Temperature 63 °F 48 °F  
Max Temperature 75 °F 60 °F 84 °F (1968)
Min Temperature 50 °F 36 °F 23 °F (1970)
Degree Days  
Heating Degree Days 2 17  
Month to date heating degree days 283 229  
Since 1 July heating degree days 480 437  
Cooling Degree Days 0 0  
Month to date cooling degree days 0 4  
Year to date cooling degree days 886 591  
Growing Degree Days 13 (Base 50)    
Moisture  
Dew Point 44 °F    
Average Humidity 55    
Maximum Humidity 77    
Minimum Humidity 33    
Precipitation  
Precipitation 0.00 in 0.06 in 0.75 in (2000)
Month to date precipitation 0.07 1.42  
Sea Level Pressure  
Sea Level Pressure 29.50 in    
Wind  
Wind Speed 8 mph (South)    
Max Wind Speed 20 mph    
Max Gust Speed 23 mph    
Visibility 10 miles    
Events      
T = Trace of Precipitation, MM = Missing Value Source: NWS Daily Summary

Daily Weather History Graph

Daily Weather History Graph

Search for Another Location

Airport or City:

Trip Planner

Search our weather history database for the weather conditions in past years. The results will help you decide how hot, cold, wet, or windy it might be!

Date:

Astronomy

Oct. 16, 2012 Rise Set
Actual Time 7:34 AM CDT 6:33 PM CDT
Civil Twilight 7:05 AM CDT 7:02 PM CDT
Nautical Twilight 6:32 AM CDT 7:35 PM CDT
Astronomical Twilight 5:59 AM CDT 8:08 PM CDT
Moon 9:02 AM CDT (10/16) 7:14 PM CDT (10/16)
Length of Visible Light 11h 56m
Length of Day
10h 58m
New Moon, 2% of the Moon is Illuminated
Oct 16
New Moon
Oct 21
First Quarter
Oct 29
Full
Nov 6
Last Quarter
Nov 13
New

Hourly Weather History & Observations

Time (CDT) Temp. Dew Point Humidity Pressure Visibility Wind Dir Wind Speed Gust Speed Precip Events Conditions
12:52 AM 52.0 °F 41.0 °F 66% 29.72 in 10.0 mi South 12.7 mph - N/A   Clear
1:52 AM 52.0 °F 42.1 °F 69% 29.69 in 10.0 mi South 13.8 mph - N/A   Clear
3:52 AM 52.0 °F 43.0 °F 71% 29.63 in 10.0 mi South 17.3 mph - N/A   Clear
4:52 AM 52.0 °F 43.0 °F 71% 29.60 in 10.0 mi South 17.3 mph - N/A   Clear
5:52 AM 51.1 °F 43.0 °F 74% 29.57 in 10.0 mi South 15.0 mph - N/A   Clear
6:52 AM 51.1 °F 43.0 °F 74% 29.56 in 10.0 mi South 13.8 mph - N/A   Partly Cloudy
7:52 AM 51.1 °F 43.0 °F 74% 29.57 in 10.0 mi SSW 4.6 mph - N/A   Scattered Clouds
8:52 AM 51.1 °F 44.1 °F 77% 29.55 in 10.0 mi SSE 6.9 mph - N/A   Partly Cloudy
9:52 AM 53.1 °F 44.1 °F 71% 29.54 in 10.0 mi South 9.2 mph - N/A   Clear
10:52 AM 57.0 °F 46.0 °F 67% 29.52 in 10.0 mi SSW 6.9 mph - N/A   Clear
11:52 AM 60.1 °F 46.0 °F 60% 29.50 in 10.0 mi WNW 5.8 mph - N/A   Clear
12:52 PM 63.0 °F 46.0 °F 54% 29.48 in 10.0 mi Calm Calm - N/A   Clear
1:52 PM 66.9 °F 46.0 °F 47% 29.45 in 10.0 mi Calm Calm - N/A   Clear
2:52 PM 69.1 °F 46.0 °F 44% 29.43 in 10.0 mi SSW 5.8 mph - N/A   Clear
3:52 PM 73.9 °F 45.0 °F 35% 29.40 in 10.0 mi NW 6.9 mph - N/A   Clear
4:52 PM 75.0 °F 44.1 °F 33% 29.39 in 10.0 mi North 5.8 mph - N/A   Clear
5:52 PM 71.1 °F 45.0 °F 39% 29.39 in 10.0 mi NE 5.8 mph - N/A   Clear
6:52 PM 62.1 °F 44.1 °F 52% 29.40 in 10.0 mi ESE 3.5 mph - N/A   Clear
7:52 PM 62.1 °F 43.0 °F 50% 29.41 in 10.0 mi SW 4.6 mph - N/A   Clear
9:52 PM 53.1 °F 39.0 °F 59% 29.40 in 10.0 mi Calm Calm - N/A   Clear
10:52 PM 53.1 °F 39.9 °F 61% 29.40 in 10.0 mi SSW 6.9 mph - N/A   Clear
11:52 PM 53.1 °F 41.0 °F 64% 29.37 in 10.0 mi South 5.8 mph - N/A   Clear